Regional Weather Roundup
Issued by NWS Charleston, SC

Current Version | Previous Version | Graphics & Text | Print | Product List | Glossary On
Versions: 1 2 3 4 5 6 7 8 9 10 11 12 13 14 15 16 17 18 19 20 21 22 23 24 25 26 27 28 29 30 31 32 33 34 35 36 37 38 39 40 41 42 43 44 45 46 47 48 49 50
000
ASUS42 KCHS 221125
RWRCHS

REGIONAL WEATHER ROUNDUP
NATIONAL WEATHER SERVICE CHARLESTON SC
700 AM EDT WED OCT 22 2014

NOTE: "FAIR" INDICATES FEW OR NO CLOUDS BELOW 12,000 FEET WITH NO
SIGNIFICANT WEATHER AND/OR OBSTRUCTIONS TO VISIBILITY.

NOT ALL STATIONS ARE QUALITY CONTROLLED BY THE NATIONAL
WEATHER SERVICE. USE DATA WITH CAUTION...ESPECIALLY
DEWPOINT OBSERVATIONS.

SCZ027-030-031-034>040-042>050-221200-
...SOUTH CAROLINA...

CITY           SKY/WX    TMP DP  RH WIND       PRES   REMARKS
N CHARLESTON   CLEAR     54  42  64 N7        30.00R
WATERFRONT PRK NOT AVBL
FORT JOHNSON   NOT AVBL
JOHNS ISLAND   SUNNY     55  46  71 N12       30.00R
PINOPOLIS      NOT AVBL
MONCKS CORNER  FAIR      57  45  62 N10G20    30.00R
SUMMERVILLE    FAIR      48  46  93 CALM      30.02R
BEAUFORT MCAS  CLEAR     54  46  74 N8        30.01R
BEAUFORT ARPT  FAIR      55  46  71 N7        30.01R
HILTON HEAD IS CLEAR     57  45  62 N12G21    30.01R
GEORGETOWN     NOT AVBL
WALTERBORO     SUNNY     46  46 100 CALM      30.03R
ORANGEBURG     CLEAR     49  43  80 N3        30.02R
BARNWELL       FAIR      45  43  93 CALM      30.04R
AIKEN          FAIR      43  41  93 CALM      30.07R
MANNING        FAIR      48  43  81 CALM      30.02R
KINGSTREE      NOT AVBL
COLUMBIA       CLEAR     52  39  61 NW3       30.03R
SUMTER         CLEAR     49  41  73 NW6       30.00R
FLORENCE       FAIR      49  39  68 NW7       29.99R
MYRTLE BEACH   CLEAR     54  39  58 NW10      29.96R
N MYRTLE BEACH CLEAR     52  41  66 NW7       29.95R

$$

GAZ063-065-086>088-099>101-113>116-118-119-134-136>141-150-221200-
...GEORGIA...

CITY           SKY/WX    TMP DP  RH WIND       PRES   REMARKS
SAVANNAH ARPT  CLEAR     54  47  77 N9        30.01R
HUNTER AAF     CLEAR     56  48  72 N10       29.99R
FORT STEWART   CLEAR     52  47  82 N6        30.00R
STATESBORO     NOT AVBL
SYLVANIA       SUNNY     51  49  95 CALM      30.04R
CLAXTON        FAIR      46  46 100 CALM      30.03R
THOMSON          N/A     43  43 100 CALM      30.09R
AUGUSTA-BUSH   CLEAR     41  41 100 CALM      30.04R
AUGUSTA-DANIEL CLEAR     52  43  71 N7        30.04R
SWAINSBORO     FAIR      46  46 100 MISG      30.04R FOG
VIDALIA        CLEAR     52  46  82 N5        30.04R
ALMA           CLEAR     50  48  93 N3        30.02R
WAYCROSS       CLEAR     56  53  91 N3        30.02R
JESUP          FAIR      57  52  82 N7        30.01R
BRUNSWICK      CLEAR     55  50  82 N3        30.00R
SAINT SIMONS   CLEAR     57  51  80 N9        29.98R

$$

SCZ027-028-034-036>038-045-046-048>050-GAZ119-141-221200-
...LAKE AND SUPPLEMENTAL COASTAL OBSERVATIONS...

STATION/POSITION TIME  TEMP    WIND        PRES    WAVE   SWELL
                       AIR SEA DIR/SP/G            HT/PER HT/PER/DIR
                 (UTC) (F)     (DEG/KT/KT) (MB)    (FT/S) (FT/S/D)
UPR LAKE MARION  NOT AVBL
WINYAH BAY       1100   54     330/  4     1015.0R
LAKE MURRAY      1100   51     310/  4/  6 1016.3S
ACE BASIN NERRS  1100   54     360/  3     1015.0S
FORT PULASKI     1100   58     330/  8/  9 1016.1R
SAPELO ISLAND    NOT AVBL

$$

ANZ835-935-AMZ111-154-330-350-352-354-374-450-454-472-221200-
...C-MAN AND BUOY OBSERVATIONS...

STATION/POSITION TIME  TEMP    WIND        PRES    WAVE   SWELL
                       AIR SEA DIR/SP/G            HT/PER HT/PER/DIR
                 (UTC) (F)     (DEG/KT/KT) (MB)    (FT/S) (FT/S/D)
FOLLY BEACH CMAN 1100   58     350/ 11/ 15 1015.9R
BUOY 41004       1100   66 79  360/ 17/ 23 1013.4R   5/ 6   2/10
BUOY 41008       1100   68 76   20/ 17/ 21 1014.2R   3/ 5   2/120/ 9
5E ST. MARYS GA  1100      78                N/A     3/ 4
FRYING PAN BUOY  1100   61 75  340/ 19/ 23 1013.1R   5/ 6   2/110/10
BUOY 41025       1100   61     300/ 19/ 25 1009.5R   3/ 4   2/ 80/11
CAPE LOOKOUT NC  1100   58     340/ 20/ 24 1011.5R
BUOY 41002       0959   77 79  280/ 17/ 21 1011.0R   5/ 5   2/120/ 9
BUOY 41010       1100   78 80  240/  6/  8 1013.4R   3/ 8   2/ 60/ 8
BUOY 41012       NOT AVBL
ST AUGUSTINE FL  1100   64     310/  7/  8 1015.3R
CAPERS NEARSHORE 1000   59      20/ 17/ 21   N/A
FRIPP NEARSHORE  NOT AVBL


$$



USA.gov is the U.S. government's official web portal to all federal, state and local government web resources and services.